一网星座-0561星 (ONEWEB-0561)

导读 | 星芒AI

ONEWEB-0561 是 OneWeb 卫星通信公司发射的低轨通信卫星之一,属于其全球宽带互联网星座计划。该卫星运行在约 1200 公里的近地轨道,旨在为全球用户提供高速、低延迟的互联网服务。OneWeb 的星座由数百颗卫星组成,主要用于航空、海运及偏远地区通信。ONEWEB-0561 的发射进一步完善了其网络覆盖,增强系统冗余与服务能力。该卫星采用模块化设计,具备高容量通信载荷,支持 Ku 和 Ka 频段,助力实现全球无缝连接。

基本信息
目录编号:
56710
目录名称:
ONEWEB-0561
国际标识:
2023-068A
轨道中心:
EARTH
卫星名称:
一网星座-0561星
卫星全名:
一网星座-0561星 (ONEWEB-0561)
卫星状态:
在轨 (已飞行894 天)
发射日期:
2023-05-20 UTC
国别 :
英国 (GB)
星等 :
--
轨道信息
数据来源 国际轨道数据 AOE轨道数据
星历时间 2025-10-30T01:53:42+0800
11小时前
查看轨道信息
2025-10-23T19:00:00+0800
6天前
查看轨道信息
半长轴 7559.916km 7559.921km
偏心率 0.0001558 0.0001474
轨道倾角 87.919° 87.920°
近地点辐角 105.101° 102.885°
升交点赤经 320.412° 321.666°
平近点角 255.030° 259.730°
近地点 1180.603km 1180.671km
远地点 1182.959km 1182.901km
周期 109.027分钟 109.027分钟
每日圈数 13.207705 13.207691
详细信息
平衡模式:
三轴稳定
覆盖范围:
全球
运营商:
一网卫星公司
运营商所在国:
英国
制造商(研发单位):
一网卫星公司
制造商所在国:
英国
使用方式:
暂无
卫星简介
OneWeb卫星网络由648颗重约125公斤的微型卫星组成,运行在1200公里的轨道上。 每颗卫星都能够提供至少每秒8千兆位的吞吐量,以使用其高吞吐量的Ku频段有效载荷为家庭和移动平台提供互联网接入。该卫星仍在工作。
2D轨道图
3D轨道图
轨道高度分析图
轨道倾角分析图
轨道综合分析图
查看轨道综合分析图